Regional Weather Roundup
Issued by NWS

Home | Current Version | Previous Version | Graphics & Text | Print | Product List | Glossary On
Versions: 1 2 3 4 5 6 7 8 9 10 11 12 13 14 15 16 17 18 19 20 21 22 23 24 25 26 27 28 29 30 31 32 33 34 35 36 37 38 39 40 41 42 43 44 45 46 47 48 49 50
000
ASUS45 KCYS 290610
RWRWY

WYOMING REGIONAL WEATHER ROUNDUP
NATIONAL WEATHER SERVICE CHEYENNE WY
1200 AM MDT FRI MAY 29 2015

NOTE:  "FAIR" INDICATES FEW OR NO CLOUDS BELOW 12,000 FEET
WITH NO SIGNIFICANT WEATHER AND/OR OBSTRUCTIONS TO VISIBILITY.

WYZ001-290700-
YELLOWSTONE NATIONAL PARK

CITY           SKY/WX    TMP DP  RH WIND       PRES   REMARKS
LK YELLOWSTONE   N/A     37  36  96 CALM      30.33R
6HR MIN TEMP:  37; 6HR MAX TEMP:  47; 6HR PCP:  0.02;

W YELLOWSTONE  NOT AVBL

$$
WYZ002>013-054>058-071-098>099-290700-
NORTHERN WYOMING

CITY           SKY/WX    TMP DP  RH WIND       PRES   REMARKS
JACKSON        CLOUDY    39  39 100 NW3       30.26F
CODY           CLOUDY    50  45  81 N7        30.24R
GREYBULL       CLOUDY    56  47  71 NW10G22   30.15R
6HR MIN TEMP:  55; 6HR MAX TEMP:  66;

WORLAND        CLOUDY    53  46  77 VRB6      30.17R
6HR MIN TEMP:  53; 6HR MAX TEMP:  65;

SHERIDAN       RAIN      52  50  93 W12       30.19S FOG
6HR MIN TEMP:  52; 6HR MAX TEMP:  60; 6HR PCP:  0.03;

BUFFALO        LGT RAIN  50  47  89 NW18G28   30.19R
6HR MIN TEMP:  50; 6HR MAX TEMP:  58; 6HR PCP:  0.01;

GILLETTE       LGT RAIN  52  49  89 NW16      30.13S
6HR MIN TEMP:  51; 6HR MAX TEMP:  58; 6HR PCP: TRACE;

HULETT         CLOUDY    54  50  87 N8        30.12S
NEWCASTLE      MOCLDY    50  50 100 NW9       30.11R

$$
WYZ014>020-022>026-101>103-290700-
CENTRAL WYOMING

CITY           SKY/WX    TMP DP  RH WIND       PRES   REMARKS
BIG PINEY      FAIR      41  36  82 N8        30.25R
6HR MIN TEMP:  41; 6HR MAX TEMP:  56; 6HR PCP: TRACE;

PINEDALE       FAIR      37  37 100 W8        30.25S WCI  31
DUBOIS         DRIZZLE   43  37  81 CALM      30.26R
LANDER         LGT RAIN  47  43  86 W8        30.22R
6HR MIN TEMP:  47; 6HR MAX TEMP:  55; 6HR PCP:  0.02;

RIVERTON       LGT RAIN  49  42  77 N14       30.22R
6HR MIN TEMP:  49; 6HR MAX TEMP:  57; 6HR PCP:  0.02;

CASPER         MOCLDY    48  43  82 NE5       30.18R
6HR MIN TEMP:  46; 6HR MAX TEMP:  58; 6HR PCP: TRACE;

DOUGLAS        MOCLDY    53  48  83 NW6       30.16R
6HR MIN TEMP:  53; 6HR MAX TEMP:  64;


$$
WYZ021-027>030-104>119-290700-
SOUTHERN WYOMING

CITY           SKY/WX    TMP DP  RH WIND       PRES   REMARKS
EVANSTON       FAIR      45  36  70 SE3       30.28R
6HR MIN TEMP:  45; 6HR MAX TEMP:  53;

KEMMERER       FAIR      41  36  81 NW8       30.28S
FORT BRIDGER   CLEAR     45  39  81 W8        30.29S
ROCK SPRINGS   FAIR      43  38  82 E6        30.24S
6HR MIN TEMP:  43; 6HR MAX TEMP:  49; 6HR PCP: TRACE;

DIXON          CLOUDY    47  40  77 CALM      30.26F
RAWLINS        MOCLDY    47  38  71 W12       30.22R
6HR MIN TEMP:  46; 6HR MAX TEMP:  54;

SARATOGA       FAIR      45  37  76 SW13      30.24S
LARAMIE        CLOUDY    47  36  65 NE5       30.22R
6HR MIN TEMP:  46; 6HR MAX TEMP:  56; 6HR PCP: TRACE;

CHEYENNE       CLOUDY    50  40  68 N16G23    30.18R
6HR MIN TEMP:  50; 6HR MAX TEMP:  64;

TORRINGTON     CLOUDY    57  49  74 NW5       30.09S
6HR MIN TEMP:  56; 6HR MAX TEMP:  74; 6HR PCP:  0.02;

PINE BLUFFS    CLOUDY    50  46  87 NW8       30.14S

$$



USA.gov is the U.S. government's official web portal to all federal, state and local government web resources and services.